BEL5BJ EBBR-EGCC

Flight info

Callsign BEL5BJ
Flight time 0h 54m
Altitude 24000
Route HELEN L179 SASKI L608 LOGAN/N0391F220 L608 CLN DCT ELVOS
Aircraft A320/M-SDE3FGHIRWY/LB1

Departure

Time 2026-05-07 19:53
Airport Brussels Airport (EBBR)

Arrival

Time 2026-05-07 20:47
Airport Manchester Airport (EGCC)
Time Latitude Longitude Altitude Speed Heading
2026-05-07 19:19 50.90230 4.48406 119 ft 0 kts 335°
2026-05-07 19:40 50.90216 4.48417 117 ft 4 kts 334°
2026-05-07 19:40 50.90191 4.48435 117 ft 4 kts 336°
2026-05-07 19:40 50.90166 4.48449 120 ft 4 kts 355°
2026-05-07 19:41 50.90148 4.48444 120 ft 2 kts 64°
2026-05-07 19:41 50.90148 4.48442 120 ft 0 kts 65°
2026-05-07 19:43 50.90152 4.48455 123 ft 4 kts 66°
2026-05-07 19:43 50.90164 4.48498 122 ft 8 kts 65°
2026-05-07 19:43 50.90199 4.48623 122 ft 16 kts 65°
2026-05-07 19:44 50.90250 4.48797 124 ft 18 kts 65°
2026-05-07 19:44 50.90304 4.48986 123 ft 20 kts 65°
2026-05-07 19:44 50.90364 4.49191 123 ft 21 kts 65°
2026-05-07 19:44 50.90405 4.49335 123 ft 22 kts 65°
2026-05-07 19:45 50.90470 4.49558 122 ft 15 kts 65°
2026-05-07 19:45 50.90561 4.49635 124 ft 17 kts 14°
2026-05-07 19:45 50.90680 4.49685 122 ft 18 kts 15°
2026-05-07 19:45 50.90742 4.49709 120 ft 2 kts 14°
2026-05-07 19:46 50.90756 4.49715 124 ft 2 kts 14°
2026-05-07 19:46 50.90764 4.49718 124 ft 1 kts 14°
2026-05-07 19:46 50.90774 4.49722 124 ft 1 kts 14°
2026-05-07 19:46 50.90782 4.49726 124 ft 0 kts 14°
2026-05-07 19:47 50.90784 4.49726 124 ft 2 kts 14°
2026-05-07 19:47 50.90812 4.49738 122 ft 4 kts 15°
2026-05-07 19:47 50.90836 4.49748 124 ft 3 kts 14°
2026-05-07 19:47 50.90857 4.49756 124 ft 5 kts 14°
2026-05-07 19:48 50.90924 4.49793 119 ft 10 kts 29°
2026-05-07 19:48 50.90947 4.49819 121 ft 0 kts 38°
2026-05-07 19:50 50.90948 4.49819 121 ft 0 kts 38°
2026-05-07 19:50 50.90954 4.49828 122 ft 2 kts 38°
2026-05-07 19:50 50.90968 4.49845 120 ft 3 kts 39°
2026-05-07 19:51 50.91011 4.49891 118 ft 10 kts 27°
2026-05-07 19:51 50.91070 4.49934 118 ft 11 kts 25°
2026-05-07 19:51 50.91140 4.49926 116 ft 7 kts 332°
2026-05-07 19:51 50.91139 4.49887 118 ft 0 kts 246°
2026-05-07 19:52 50.91053 4.49589 117 ft 67 kts 245°
2026-05-07 19:52 50.90767 4.48598 118 ft 128 kts 245°
2026-05-07 19:53 50.90331 4.47085 178 ft 169 kts 246°
2026-05-07 19:53 50.89845 4.45390 822 ft 167 kts 247°
2026-05-07 19:53 50.89707 4.43577 1450 ft 170 kts 286°
2026-05-07 19:53 50.90259 4.41949 2085 ft 170 kts 315°
2026-05-07 19:54 50.91177 4.40778 2692 ft 170 kts 323°
2026-05-07 19:54 50.92011 4.39452 3285 ft 171 kts 311°
2026-05-07 19:54 50.92801 4.37919 3619 ft 190 kts 309°
2026-05-07 19:54 50.93662 4.36169 3866 ft 214 kts 308°
2026-05-07 19:55 50.94619 4.34183 4164 ft 239 kts 308°
2026-05-07 19:55 50.95671 4.31977 4568 ft 262 kts 307°
2026-05-07 19:55 50.96789 4.29622 5293 ft 271 kts 308°
2026-05-07 19:55 50.98042 4.27367 6172 ft 274 kts 313°
2026-05-07 19:56 50.99382 4.25200 7049 ft 276 kts 314°
2026-05-07 19:56 51.00761 4.23056 7899 ft 279 kts 315°
2026-05-07 19:56 51.02162 4.20898 8744 ft 282 kts 315°
2026-05-07 19:56 51.03575 4.18713 9597 ft 285 kts 315°
2026-05-07 19:57 51.04986 4.16464 10302 ft 293 kts 309°
2026-05-07 19:57 51.06062 4.13588 10522 ft 315 kts 294°
2026-05-07 19:57 51.06994 4.10306 10828 ft 334 kts 293°
2026-05-07 19:57 51.07940 4.06895 11452 ft 340 kts 292°
2026-05-07 19:58 51.08895 4.03428 12171 ft 344 kts 292°
2026-05-07 19:58 51.09860 3.99922 12897 ft 348 kts 292°
2026-05-07 19:58 51.10833 3.96381 13612 ft 351 kts 292°
2026-05-07 19:58 51.11819 3.92797 14271 ft 355 kts 292°
2026-05-07 19:59 51.12814 3.89187 14905 ft 358 kts 292°
2026-05-07 19:59 51.13821 3.85547 15540 ft 361 kts 292°
2026-05-07 19:59 51.14837 3.81880 16176 ft 363 kts 292°
2026-05-07 19:59 51.15866 3.78188 16816 ft 366 kts 293°
2026-05-07 20:00 51.16902 3.74522 17433 ft 369 kts 293°
2026-05-07 20:00 51.17978 3.70735 18067 ft 372 kts 293°
2026-05-07 20:00 51.19034 3.67019 18648 ft 374 kts 293°
2026-05-07 20:00 51.20108 3.63228 19191 ft 377 kts 293°
2026-05-07 20:01 51.21186 3.59407 19748 ft 379 kts 293°
2026-05-07 20:01 51.22270 3.55559 20302 ft 381 kts 292°
2026-05-07 20:01 51.23374 3.51630 20864 ft 384 kts 292°
2026-05-07 20:01 51.24452 3.47784 21411 ft 386 kts 292°
2026-05-07 20:02 51.25551 3.43858 21950 ft 388 kts 292°
2026-05-07 20:02 51.26654 3.39910 22484 ft 391 kts 292°
2026-05-07 20:02 51.27760 3.35931 22992 ft 393 kts 292°
2026-05-07 20:02 51.28873 3.31931 23505 ft 395 kts 292°
2026-05-07 20:03 51.29993 3.27907 23830 ft 397 kts 292°
2026-05-07 20:03 51.31115 3.23879 24022 ft 397 kts 292°
2026-05-07 20:03 51.32236 3.19850 24080 ft 396 kts 292°
2026-05-07 20:03 51.33350 3.15833 24086 ft 395 kts 292°
2026-05-07 20:04 51.34457 3.11815 24088 ft 394 kts 292°
2026-05-07 20:04 51.35558 3.07800 24088 ft 394 kts 292°
2026-05-07 20:04 51.36659 3.03785 24086 ft 394 kts 292°
2026-05-07 20:04 51.37760 2.99764 24088 ft 394 kts 292°
2026-05-07 20:05 51.38863 2.95743 24085 ft 394 kts 292°
2026-05-07 20:05 51.39966 2.91727 24094 ft 394 kts 292°
2026-05-07 20:05 51.41068 2.87709 24093 ft 394 kts 292°
2026-05-07 20:05 51.42166 2.83689 24094 ft 394 kts 292°
2026-05-07 20:06 51.43264 2.79660 24088 ft 394 kts 292°
2026-05-07 20:06 51.44360 2.75633 24092 ft 394 kts 292°
2026-05-07 20:06 51.45452 2.71608 24088 ft 394 kts 292°
2026-05-07 20:06 51.46541 2.67581 24091 ft 394 kts 291°
2026-05-07 20:07 51.47630 2.63546 24088 ft 394 kts 291°
2026-05-07 20:07 51.48717 2.59520 24090 ft 393 kts 291°
2026-05-07 20:07 51.49800 2.55491 24088 ft 393 kts 291°
2026-05-07 20:07 51.50884 2.51455 24088 ft 393 kts 291°
2026-05-07 20:08 51.51966 2.47423 24088 ft 393 kts 291°
2026-05-07 20:08 51.53046 2.43389 24088 ft 393 kts 291°
2026-05-07 20:08 51.54127 2.39347 24090 ft 394 kts 291°
2026-05-07 20:08 51.55205 2.35309 24102 ft 394 kts 291°
2026-05-07 20:09 51.56285 2.31264 24100 ft 394 kts 291°
2026-05-07 20:09 51.57365 2.27224 24099 ft 394 kts 291°
2026-05-07 20:09 51.58446 2.23177 24097 ft 394 kts 291°
2026-05-07 20:10 51.60587 2.15086 24096 ft 393 kts 291°
2026-05-07 20:10 51.61656 2.11034 24094 ft 393 kts 291°
2026-05-07 20:10 51.62723 2.06987 24093 ft 393 kts 291°
2026-05-07 20:10 51.63754 2.02920 24090 ft 392 kts 286°
2026-05-07 20:11 51.64152 1.98612 24082 ft 389 kts 267°
2026-05-07 20:11 51.63882 1.94282 24074 ft 389 kts 262°
2026-05-07 20:11 51.63525 1.89957 24081 ft 390 kts 262°
2026-05-07 20:11 51.63164 1.85627 24074 ft 391 kts 262°
2026-05-07 20:12 51.62802 1.81288 24073 ft 391 kts 262°
2026-05-07 20:12 51.62437 1.76950 24076 ft 391 kts 262°
2026-05-07 20:12 51.62072 1.72610 24073 ft 392 kts 262°
2026-05-07 20:12 51.61704 1.68261 24079 ft 392 kts 262°
2026-05-07 20:13 51.61336 1.63914 24076 ft 392 kts 262°
2026-05-07 20:13 51.60967 1.59565 24081 ft 392 kts 262°
2026-05-07 20:13 51.60599 1.55218 24077 ft 392 kts 262°
2026-05-07 20:13 51.60229 1.50865 24078 ft 392 kts 262°
2026-05-07 20:14 51.59858 1.46521 24079 ft 392 kts 262°
2026-05-07 20:14 51.59488 1.42179 24086 ft 392 kts 262°
2026-05-07 20:14 51.59124 1.37831 24080 ft 392 kts 262°
2026-05-07 20:14 51.58761 1.33481 24080 ft 393 kts 262°
2026-05-07 20:15 51.58397 1.29122 24082 ft 393 kts 262°
2026-05-07 20:15 51.58033 1.24772 24087 ft 393 kts 262°
2026-05-07 20:15 51.57668 1.20419 24083 ft 393 kts 262°
2026-05-07 20:15 51.57302 1.16061 24087 ft 393 kts 262°
2026-05-07 20:16 51.56936 1.11700 24087 ft 394 kts 262°
2026-05-07 20:16 51.56568 1.07341 24077 ft 394 kts 262°
2026-05-07 20:16 51.56203 1.02981 24082 ft 394 kts 262°
2026-05-07 20:16 51.55838 0.98616 24081 ft 394 kts 262°
2026-05-07 20:17 51.55471 0.94246 24094 ft 394 kts 261°
2026-05-07 20:17 51.55113 0.89882 24083 ft 395 kts 262°
2026-05-07 20:17 51.54756 0.85509 24076 ft 395 kts 262°
2026-05-07 20:17 51.54399 0.81138 24075 ft 395 kts 262°
2026-05-07 20:18 51.54041 0.76767 24074 ft 395 kts 261°
2026-05-07 20:18 51.53683 0.72400 24077 ft 394 kts 261°
2026-05-07 20:18 51.53324 0.68038 24075 ft 394 kts 261°
2026-05-07 20:18 51.52964 0.63668 24075 ft 394 kts 261°
2026-05-07 20:19 51.52604 0.59309 24077 ft 394 kts 261°
2026-05-07 20:19 51.52242 0.54940 24070 ft 394 kts 261°
2026-05-07 20:19 51.51880 0.50576 24070 ft 394 kts 261°
2026-05-07 20:19 51.51518 0.46214 24073 ft 394 kts 261°
2026-05-07 20:20 51.51163 0.41849 24076 ft 395 kts 261°
2026-05-07 20:20 51.50809 0.37483 24073 ft 395 kts 261°
2026-05-07 20:20 51.50455 0.33107 24075 ft 395 kts 261°
2026-05-07 20:20 51.50100 0.28746 24077 ft 395 kts 261°
2026-05-07 20:21 51.49746 0.24377 24076 ft 395 kts 262°
2026-05-07 20:21 51.49731 0.19978 24079 ft 396 kts 277°
2026-05-07 20:21 51.50519 0.15743 24088 ft 399 kts 294°
2026-05-07 20:21 51.52093 0.12072 24083 ft 403 kts 312°
2026-05-07 20:22 51.54270 0.09206 24081 ft 406 kts 321°
2026-05-07 20:22 51.56553 0.06535 24075 ft 406 kts 321°
2026-05-07 20:22 51.58838 0.03877 24075 ft 406 kts 321°
2026-05-07 20:22 51.61125 0.01210 24073 ft 406 kts 321°
2026-05-07 20:23 51.63413 -0.01468 24059 ft 406 kts 321°
2026-05-07 20:23 51.65695 -0.04148 24056 ft 408 kts 321°
2026-05-07 20:23 51.68023 -0.06893 24058 ft 422 kts 321°
2026-05-07 20:23 51.70430 -0.09735 24057 ft 434 kts 321°
2026-05-07 20:24 51.72893 -0.12645 24058 ft 444 kts 321°
2026-05-07 20:24 51.75397 -0.15605 24053 ft 447 kts 321°
2026-05-07 20:24 51.77905 -0.18574 24058 ft 448 kts 321°
2026-05-07 20:24 51.80416 -0.21549 24054 ft 448 kts 321°
2026-05-07 20:25 51.82928 -0.24528 24087 ft 447 kts 321°
2026-05-07 20:25 51.85434 -0.27502 24088 ft 447 kts 321°
2026-05-07 20:25 51.87938 -0.30483 24081 ft 447 kts 321°
2026-05-07 20:25 51.90437 -0.33467 24080 ft 446 kts 321°
2026-05-07 20:26 51.92934 -0.36455 24088 ft 446 kts 321°
2026-05-07 20:26 51.94586 -0.38435 24087 ft 446 kts 321°
2026-05-07 20:26 51.97080 -0.41427 24075 ft 446 kts 321°
2026-05-07 20:26 51.99580 -0.44421 24074 ft 446 kts 321°
2026-05-07 20:27 52.02078 -0.47411 24072 ft 446 kts 321°
2026-05-07 20:27 52.04577 -0.50406 24064 ft 446 kts 321°
2026-05-07 20:27 52.07069 -0.53409 24067 ft 446 kts 321°
2026-05-07 20:27 52.09558 -0.56416 24070 ft 446 kts 321°
2026-05-07 20:28 52.12043 -0.59426 24057 ft 445 kts 321°
2026-05-07 20:28 52.14529 -0.62439 24056 ft 445 kts 321°
2026-05-07 20:28 52.17012 -0.65444 24055 ft 445 kts 321°
2026-05-07 20:28 52.19495 -0.68452 24055 ft 445 kts 321°
2026-05-07 20:29 52.21980 -0.71469 24052 ft 445 kts 321°
2026-05-07 20:29 52.24456 -0.74482 24050 ft 444 kts 321°
2026-05-07 20:29 52.26936 -0.77499 24047 ft 444 kts 321°
2026-05-07 20:29 52.29413 -0.80514 24051 ft 444 kts 321°
2026-05-07 20:30 52.31892 -0.83536 24053 ft 444 kts 321°
2026-05-07 20:30 52.34365 -0.86561 24055 ft 444 kts 321°
2026-05-07 20:30 52.36836 -0.89589 24054 ft 444 kts 321°
2026-05-07 20:30 52.39305 -0.92617 24052 ft 444 kts 321°
2026-05-07 20:31 52.41768 -0.95647 24057 ft 443 kts 320°
2026-05-07 20:31 52.44232 -0.98686 24040 ft 443 kts 320°
2026-05-07 20:31 52.46697 -1.01725 24030 ft 443 kts 321°
2026-05-07 20:31 52.49163 -1.04771 24022 ft 444 kts 321°
2026-05-07 20:32 52.51630 -1.07817 24018 ft 444 kts 321°
2026-05-07 20:32 52.54100 -1.10864 23986 ft 441 kts 321°
2026-05-07 20:32 52.56531 -1.13869 23306 ft 435 kts 320°
2026-05-07 20:32 52.58935 -1.16857 22514 ft 432 kts 320°
2026-05-07 20:33 52.61286 -1.19840 22087 ft 421 kts 320°
2026-05-07 20:33 52.63561 -1.22787 21598 ft 413 kts 319°
2026-05-07 20:33 52.65797 -1.25729 21035 ft 409 kts 319°
2026-05-07 20:33 52.68003 -1.28646 20470 ft 405 kts 319°
2026-05-07 20:34 52.70192 -1.31540 19907 ft 402 kts 319°
2026-05-07 20:34 52.72372 -1.34417 19355 ft 400 kts 319°
2026-05-07 20:34 52.74542 -1.37268 18873 ft 398 kts 319°
2026-05-07 20:34 52.76701 -1.40099 18348 ft 396 kts 319°
2026-05-07 20:35 52.78850 -1.42921 17737 ft 394 kts 319°
2026-05-07 20:35 52.80988 -1.45730 17171 ft 391 kts 319°
2026-05-07 20:35 52.83110 -1.48520 16618 ft 389 kts 319°
2026-05-07 20:35 52.85206 -1.51281 16297 ft 380 kts 319°
2026-05-07 20:36 52.87249 -1.53977 15995 ft 372 kts 319°
2026-05-07 20:36 52.89263 -1.56638 15524 ft 369 kts 319°
2026-05-07 20:36 52.91330 -1.59123 15057 ft 368 kts 329°
2026-05-07 20:36 52.93674 -1.60841 14585 ft 367 kts 336°
2026-05-07 20:37 52.96040 -1.62416 14100 ft 366 kts 336°
2026-05-07 20:37 52.98405 -1.63965 13592 ft 365 kts 336°
2026-05-07 20:37 53.00756 -1.65498 13098 ft 362 kts 336°
2026-05-07 20:37 53.03090 -1.67021 12610 ft 358 kts 336°
2026-05-07 20:38 53.05389 -1.68552 12131 ft 355 kts 335°
2026-05-07 20:38 53.07650 -1.70135 11645 ft 351 kts 334°
2026-05-07 20:38 53.09879 -1.71736 11174 ft 347 kts 334°
2026-05-07 20:38 53.12058 -1.73309 10703 ft 344 kts 334°
2026-05-07 20:39 53.14233 -1.74878 10397 ft 335 kts 334°
2026-05-07 20:39 53.16324 -1.76381 10272 ft 321 kts 334°
2026-05-07 20:39 53.18336 -1.77828 10147 ft 308 kts 333°
2026-05-07 20:39 53.20268 -1.79212 10024 ft 297 kts 334°
2026-05-07 20:40 53.22140 -1.80551 9777 ft 290 kts 333°
2026-05-07 20:40 53.23981 -1.81869 9244 ft 287 kts 333°
2026-05-07 20:40 53.25813 -1.83188 8564 ft 286 kts 333°
2026-05-07 20:40 53.27648 -1.84513 7983 ft 287 kts 334°
2026-05-07 20:41 53.29481 -1.85837 7493 ft 290 kts 334°
2026-05-07 20:41 53.31316 -1.87171 7170 ft 286 kts 334°
2026-05-07 20:41 53.33132 -1.88492 6802 ft 284 kts 333°
2026-05-07 20:41 53.34775 -1.90196 6503 ft 275 kts 317°
2026-05-07 20:42 53.36144 -1.92376 5938 ft 270 kts 311°
2026-05-07 20:42 53.37397 -1.94697 5398 ft 263 kts 308°
2026-05-07 20:42 53.38542 -1.96906 5261 ft 240 kts 307°
2026-05-07 20:42 53.39586 -1.98911 5023 ft 222 kts 307°
2026-05-07 20:43 53.40586 -2.00820 4701 ft 212 kts 307°
2026-05-07 20:43 53.41548 -2.02648 4318 ft 207 kts 307°
2026-05-07 20:43 53.42465 -2.04387 4189 ft 189 kts 306°
2026-05-07 20:43 53.43162 -2.06172 3845 ft 181 kts 290°
2026-05-07 20:44 53.43486 -2.08140 3389 ft 172 kts 270°
2026-05-07 20:44 53.43385 -2.10094 2859 ft 166 kts 250°
2026-05-07 20:44 53.42907 -2.11813 2434 ft 159 kts 231°
2026-05-07 20:44 53.42229 -2.13252 2234 ft 156 kts 228°
2026-05-07 20:45 53.41555 -2.14656 2031 ft 154 kts 228°
2026-05-07 20:45 53.40888 -2.16046 1823 ft 153 kts 227°
2026-05-07 20:45 53.40236 -2.17403 1632 ft 145 kts 227°
2026-05-07 20:45 53.39615 -2.18693 1422 ft 141 kts 227°
2026-05-07 20:46 53.39002 -2.19962 1225 ft 139 kts 227°
2026-05-07 20:46 53.38393 -2.21230 1030 ft 140 kts 227°
2026-05-07 20:46 53.37777 -2.22507 842 ft 141 kts 228°
2026-05-07 20:46 53.37154 -2.23804 637 ft 144 kts 230°
2026-05-07 20:47 53.36523 -2.25113 430 ft 145 kts 230°
2026-05-07 20:47 53.35893 -2.26424 276 ft 140 kts 230°
2026-05-07 20:47 53.35351 -2.27541 251 ft 102 kts 231°
2026-05-07 20:47 53.35026 -2.28218 228 ft 44 kts 232°
2026-05-07 20:48 53.34954 -2.28549 223 ft 26 kts 256°
2026-05-07 20:48 53.34950 -2.28722 220 ft 11 kts 302°
2026-05-07 20:48 53.35007 -2.28749 221 ft 7 kts 27°
2026-05-07 20:48 53.35049 -2.28679 223 ft 13 kts 48°
2026-05-07 20:49 53.35126 -2.28517 228 ft 19 kts 52°
2026-05-07 20:49 53.35207 -2.28351 233 ft 18 kts 50°
2026-05-07 20:49 53.35285 -2.28201 237 ft 16 kts 45°
2026-05-07 20:49 53.35361 -2.28076 241 ft 14 kts 43°
2026-05-07 20:50 53.35428 -2.27967 244 ft 12 kts 44°
2026-05-07 20:50 53.35488 -2.27921 247 ft 10 kts
2026-05-07 20:50 53.35581 -2.27906 249 ft 15 kts
2026-05-07 20:50 53.35675 -2.27888 251 ft 12 kts
2026-05-07 20:51 53.35750 -2.27875 254 ft 12 kts
2026-05-07 20:51 53.35849 -2.27858 255 ft 15 kts
2026-05-07 20:51 53.35945 -2.27841 255 ft 10 kts
2026-05-07 20:51 53.36003 -2.27863 255 ft 9 kts 310°
2026-05-07 20:52 53.36050 -2.27980 255 ft 15 kts 310°
2026-05-07 20:52 53.36130 -2.28104 255 ft 17 kts 318°
2026-05-07 20:52 53.36222 -2.28236 255 ft 18 kts 319°
2026-05-07 20:52 53.36313 -2.28384 255 ft 16 kts 315°
2026-05-07 20:53 53.36372 -2.28481 255 ft 8 kts 315°
2026-05-07 20:53 53.36375 -2.28487 255 ft 0 kts 315°
2026-05-07 20:53 53.36400 -2.28481 255 ft 10 kts 16°
2026-05-07 20:53 53.36491 -2.28578 255 ft 20 kts 314°
2026-05-07 20:54 53.36583 -2.28763 255 ft 21 kts 299°
2026-05-07 20:54 53.36678 -2.28963 255 ft 23 kts 316°
2026-05-07 20:54 53.36787 -2.29088 255 ft 18 kts
2026-05-07 20:54 53.36846 -2.28988 255 ft 9 kts 115°
2026-05-07 20:55 53.36798 -2.28917 255 ft 4 kts 132°
2026-05-07 20:55 53.36797 -2.28916 255 ft 0 kts 132°